FGRST (GLAST)

Last updated on Fri Dec 19 2025 00:02:42 GMT+0000 (Coordinated Universal Time)

1 33053U 08029A 25352.37311082 .00003500 00000+0 13227-3 0 9990 2 33053 25.5838 18.8339 0008242 357.6700 2.3799 15.22637391968230
UTC large
Height (km)
Speed (km/s)
/
Latitude / Longitude
Inclination (degrees)
Orbital Period (minutes)
Azimuth
Elevation
Range (km)
Doppler Factor

Next 0 passes for location: London (51.5072 / 0.1276)

Sorry there are no passes over London.